Dubuque, IA

7:33 AM CDT on October 16, 2019 (GMT -0500)
Dubuque Regional

Weather History for KDBQ - August, 2019

Change the Weather History Date:

Monday, August 5, 2019

  Actual Average Record
Temperature  
Mean Temperature 74 °F 71 °F  
Max Temperature 85 °F 81 °F 98 °F (1918)
Min Temperature 62 °F 61 °F 47 °F (1978)
Degree Days  
Heating Degree Days 0 0  
Month to date heating degree days 0 0  
Since 1 June heating degree days 29 48  
Since 1 July heating degree days 0 8  
Cooling Degree Days 9 7  
Month to date cooling degree days 35 35  
Year to date cooling degree days 488 435  
Since 1 June cooling degree days 462 398  
Growing Degree Days 23 (Base 50)    
Moisture  
Dew Point 65 °F    
Average Humidity 76    
Maximum Humidity 100    
Minimum Humidity 51    
Precipitation  
Precipitation 0.77 in 0.14 in 2.64 in (1938)
Month to date precipitation 0.77 0.70  
Year to date precipitation 26.88 22.28  
Snow  
Snow 0.00 in 0.00 in - ()
Month to date snowfall 0.0 0.0  
Since 1 June snowfall 0.0 0.0  
Since 1 July snowfall 0.0 0.0  
Snow Depth 0.00 in    
Sea Level Pressure  
Sea Level Pressure 29.92 in    
Wind  
Wind Speed 9 mph (WSW)    
Max Wind Speed 32 mph    
Max Gust Speed 46 mph    
Visibility 8 miles    
Events Rain , Thunderstorm    
T = Trace of Precipitation, MM = Missing Value Source: NWS Daily Summary

Daily Weather History Graph

Daily Weather History Graph

Search for Another Location

Airport or City:

Astronomy

Aug. 05, 2019 Rise Set
Actual Time 5:59 AM CDT 8:17 PM CDT
Civil Twilight 5:27 AM CDT 8:49 PM CDT
Nautical Twilight 4:48 AM CDT 9:27 PM CDT
Astronomical Twilight 4:05 AM CDT 10:10 PM CDT
Moon 11:21 AM CDT (8/5) 11:23 PM CDT (8/5)
Length of Visible Light 15h 21m
Length of Day
14h 18m
Waxing Crescent, 28% of the Moon is Illuminated
Aug 5
Waxing Crescent
Aug 7
First Quarter
Aug 15
Full
Aug 23
Last Quarter
Aug 30
New

Hourly Weather History & Observations

Time (CDT) Temp. Heat Index Dew Point Humidity Pressure Visibility Wind Dir Wind Speed Gust Speed Precip Events Conditions
12:53 AM 66.0 °F - 63.0 °F 90% 30.01 in 10.0 mi Calm Calm - 0.00 in   Clear
1:53 AM 64.9 °F - 62.1 °F 90% 30.01 in 10.0 mi Calm Calm - N/A   Partly Cloudy
2:53 AM 64.0 °F - 62.1 °F 93% 30.01 in 10.0 mi Calm Calm - N/A   Clear
3:53 AM 64.0 °F - 62.1 °F 93% 30.00 in 10.0 mi Calm Calm - N/A   Clear
4:53 AM 63.0 °F - 61.0 °F 93% 29.99 in 10.0 mi SSW 4.6 mph - N/A   Clear
5:53 AM 63.0 °F - 61.0 °F 93% 29.98 in 10.0 mi SSW 3.5 mph - N/A   Clear
6:53 AM 63.0 °F - 62.1 °F 97% 29.98 in 8.0 mi SSW 3.5 mph - N/A   Partly Cloudy
7:53 AM 68.0 °F - 64.9 °F 90% 29.99 in 9.0 mi South 3.5 mph - N/A   Mostly Cloudy
8:53 AM 73.9 °F - 68.0 °F 82% 30.00 in 10.0 mi SSW 6.9 mph - N/A   Overcast
9:53 AM 78.1 °F - 69.1 °F 74% 29.99 in 10.0 mi SW 10.4 mph - N/A   Clear
10:53 AM 81.0 °F 83.8 °F 68.0 °F 65% 29.98 in 10.0 mi WSW 13.8 mph - N/A   Clear
11:53 AM 82.9 °F 85.4 °F 66.9 °F 58% 29.96 in 10.0 mi SW 15.0 mph - N/A   Scattered Clouds
12:53 PM 84.0 °F 86.3 °F 66.0 °F 55% 29.95 in 10.0 mi SW 10.4 mph - N/A   Partly Cloudy
1:53 PM 84.9 °F 86.6 °F 64.9 °F 51% 29.93 in 10.0 mi WSW 13.8 mph - N/A   Clear
2:53 PM 84.0 °F 85.8 °F 64.9 °F 53% 29.91 in 10.0 mi SW 15.0 mph 23.0 mph N/A   Partly Cloudy
3:53 PM 84.9 °F 86.6 °F 64.9 °F 51% 29.89 in 10.0 mi WSW 13.8 mph - N/A   Clear
4:53 PM 84.0 °F 85.8 °F 64.9 °F 53% 29.87 in 10.0 mi SSW 16.1 mph - N/A   Clear
5:53 PM 82.9 °F 85.0 °F 66.0 °F 56% 29.83 in 10.0 mi SSW 12.7 mph - N/A   Clear
6:53 PM 81.0 °F 83.8 °F 68.0 °F 65% 29.82 in 10.0 mi SSW 10.4 mph - N/A   Clear
7:53 PM 78.1 °F - 68.0 °F 71% 29.81 in 10.0 mi SW 12.7 mph - N/A   Clear
8:53 PM 75.9 °F - 69.1 °F 79% 29.83 in 10.0 mi SSW 6.9 mph - N/A   Mostly Cloudy
9:53 PM 75.0 °F - 69.1 °F 82% 29.81 in 10.0 mi SSW 10.4 mph - N/A Thunderstorm Mostly Cloudy
10:11 PM 73.0 °F - 69.1 °F 87% 29.89 in 2.5 mi North 28.8 mph 46.0 mph 0.01 in Rain , Thunderstorm Light Thunderstorms and Rain
10:17 PM 66.9 °F - 64.9 °F 93% 29.90 in 0.8 mi NNW 21.9 mph 46.0 mph 0.09 in Rain , Thunderstorm Heavy Thunderstorms and Rain
10:24 PM 66.0 °F - 66.0 °F 100% 29.89 in 1.0 mi NW 9.2 mph 36.8 mph 0.42 in Rain , Thunderstorm Heavy Thunderstorms and Rain
10:29 PM 66.0 °F - 66.0 °F 100% 29.89 in 2.0 mi West 10.4 mph - 0.50 in Rain , Thunderstorm Heavy Thunderstorms and Rain
10:40 PM 66.0 °F - 66.0 °F 100% 29.88 in 4.0 mi NW 5.8 mph - 0.56 in Rain , Thunderstorm Thunderstorms and Rain
10:48 PM 66.2 °F - 66.2 °F 100% 29.87 in 8.0 mi NNW 6.9 mph - 0.57 in Rain , Thunderstorm Light Rain
10:53 PM 66.0 °F - 66.0 °F 100% 29.85 in 10.0 mi NNW 8.1 mph - 0.58 in Rain , Thunderstorm Light Rain
11:02 PM 66.0 °F - 66.0 °F 100% 29.90 in 10.0 mi WNW 9.2 mph - 0.00 in Rain Light Rain
11:18 PM 66.0 °F - 66.0 °F 100% 29.90 in 9.0 mi West 4.6 mph - 0.01 in Rain , Thunderstorm Light Rain
11:34 PM 66.0 °F - 66.0 °F 100% 29.89 in 9.0 mi SSW 5.8 mph - 0.02 in Rain Light Rain
11:53 PM 64.9 °F - - N/A% 29.86 in 6.0 mi South 5.8 mph - 0.05 in Rain Rain